Probability
26 35 26 19 0 0 0 0 3 3 3 10 16 13 6 10 6 3 3 39 61 84 97 100 100 100 100 100 100 100 100 100 97 97 97 97 97 97 94 94 94 94 94 90 90 90 87 84 84
10 19 13 10 0 0 0 0 6 10 16 23 29 42 32 55 55 39 23 52 74 87 97 100 100 100 100 100 100 100 100 100 100 100 100 100 100 100 97 97 94 94 94 90 90 90 87 90 90
0 0 3 6 0 0 0 0 3 6 19 39 39 42 42 65 61 52 35 65 77 90 94 97 100 100 100 100 100 100 100 100 100 100 100 100 100 100 100 100 100 94 90 90 90 90 87 87 90
0 0 0 3 3 3 0 0 3 13 29 42 45 52 58 65 68 65 61 71 84 87 87 100 100 100 100 100 100 100 100 100 100 100 100 100 100 100 100 97 94 94 97 94 94 90 87 87 94
0 0 0 0 0 0 3 3 10 19 35 45 52 55 65 71 71 71 68 74 84 87 90 97 97 100 100 100 100 100 100 100 100 100 100 100 100 97 94 94 90 90 94 90 84 84 84 84 90
0 0 0 0 0 0 6 6 16 26 48 42 52 52 68 68 71 71 68 77 87 90 90 97 97 97 100 100 100 100 100 100 100 100 100 100 100 97 97 87 87 87 81 71 71 81 81 81 74
0 0 0 0 0 3 3 3 19 29 35 32 48 45 65 58 71 74 74 87 87 90 90 97 97 97 97 100 100 100 100 100 100 100 100 100 100 97 97 97 94 81 71 68 71 65 68 74 84
0 0 0 0 0 0 3 3 16 32 42 42 39 52 55 61 65 71 74 77 77 71 84 94 97 97 97 97 100 100 100 100 100 100 100 100 100 97 97 100 94 81 71 71 65 65 71 77 94
0 0 0 0 0 0 0 6 16 26 48 42 42 48 55 61 71 71 68 68 74 77 77 84 94 94 97 97 97 97 100 97 100 100 100 100 81 87 87 90 87 74 65 68 77 77 71 74 77
0 0 0 0 0 0 3 6 19 35 35 29 45 48 55 61 68 65 55 61 65 74 81 81 81 87 94 94 97 97 97 90 84 81 84 52 45 48 74 84 77 71 74 74 71 71 45 26 23
0 0 0 0 0 0 3 3 19 32 32 23 35 45 48 52 61 52 45 48 58 74 81 81 77 77 84 87 84 77 77 77 74 61 52 35 35 42 52 52 55 52 52 32 32 23 16 6 10
0 0 0 0 0 0 0 3 19 19 10 26 35 45 45 45 52 45 48 45 58 68 74 74 71 71 74 74 81 74 74 74 65 45 35 29 26 29 35 29 26 26 19 10 13 16 13 6 6
0 0 0 0 0 0 0 3 3 19 16 13 35 48 48 42 42 48 42 52 65 65 68 68 68 68 61 58 61 68 61 61 58 42 35 29 23 19 16 13 16 16 3 3 6 10 10 6 3
0 0 0 0 0 3 3 0 6 13 13 19 39 52 52 48 45 45 45 39 48 61 58 65 65 61 55 48 52 55 52 39 29 32 29 19 13 13 13 10 10 10 3 3 6 6 0 0 3
0 0 0 0 0 0 6 3 0 13 23 26 35 39 48 48 48 45 42 39 42 48 52 58 58 55 48 45 42 42 35 26 26 23 23 19 10 13 13 10 10 6 3 3 3 6 0 0 0
0 0 0 0 0 0 0 3 3 16 23 23 35 45 42 45 48 39 35 35 32 35 42 52 58 52 39 26 16 13 19 19 16 16 13 10 10 10 10 10 6 0 0 0 3 3 0 0 0
0 0 0 0 0 0 0 0 3 19 16 23 32 35 35 39 42 35 29 26 23 26 19 29 45 35 23 16 6 10 10 13 13 6 6 6 6 3 3 3 0 0 0 0 3 0 0 0 0
0 0 0 0 0 0 0 0 3 23 19 16 26 39 35 32 26 29 23 26 19 13 16 16 16 13 6 6 6 0 3 6 3 3 3 6 6 3 3 0 0 0 0 0 0 0 0 0 0
0 0 0 0 0 0 0 0 6 16 19 23 29 29 29 35 26 23 26 26 23 13 10 16 13 6 3 10 0 0 3 0 0 0 3 3 6 3 3 0 0 0 0 0 0 0 0 0 0
0 0 0 0 0 0 0 0 3 19 23 19 19 19 23 26 26 29 26 16 16 13 6 13 13 6 3 6 0 0 0 0 0 0 3 3 3 0 3 0 0 0 0 0 0 0 0 0 0
0 0 0 0 0 0 0 0 3 16 16 16 26 26 32 29 19 23 16 16 16 16 16 16 10 6 6 0 0 0 0 0 0 0 0 0 0 0 0 0 0 0 0 0 0 0 0 0 0
0 0 0 0 0 0 0 0 0 6 16 16 23 23 29 26 19 19 16 16 13 13 13 6 6 3 0 0 0 0 0 0 0 0 0 0 0 0 0 0 0 0 0 0 0 0 0 0 0
0 0 0 0 0 0 0 0 0 3 6 16 13 23 23 23 16 16 16 13 13 13 10 3 3 0 0 0 0 0 0 0 0 0 0 0 0 0 0 0 0 0 0 0 0 0 0 0 0
0 0 0 0 0 0 0 0 0 3 3 10 13 16 26 16 13 13 6 6 6 6 10 3 3 0 0 0 0 0 0 0 0 0 0 0 0 0 0 0 0 0 0 0 0 0 0 0 0
0 0 0 0 0 0 0 0 0 0 0 10 10 10 19 16 13 10 6 6 6 10 10 3 3 0 0 0 0 0 0 0 0 0 0 0 0 0 0 0 0 0 0 0 0 0 0 0 0
0 0 0 0 0 0 0 0 0 3 3 6 10 13 19 16 13 10 6 6 6 10 10 6 3 0 0 0 0 0 0 0 0 0 0 0 0 0 0 0 0 0 0 0 0 0 0 0 0
0 0 0 0 0 0 0 0 0 0 0 6 6 13 23 16 13 10 3 3 3 6 3 6 3 0 0 0 3 0 0 0 0 0 0 0 0 0 0 0 0 0 0 0 0 0 0 0 0
0 0 0 0 0 0 0 0 0 0 0 3 10 13 16 16 16 13 6 6 3 3 3 3 0 0 0 0 3 3 0 0 0 0 0 0 0 0 0 0 0 0 0 0 0 0 0 0 0
0 0 0 0 0 0 0 0 0 0 0 0 3 6 13 13 16 10 6 6 3 3 3 6 3 0 0 0 3 3 0 0 0 0 0 0 0 0 0 0 0 0 0 0 0 0 0 0 0
0 0 0 0 0 0 0 0 0 0 0 0 0 6 3 6 6 3 6 6 3 3 3 6 6 3 3 3 6 3 3 0 0 0 0 0 0 0 0 0 0 0 0 0 0 0 0 0 0
Height
5881 5880 5880 5879 5880 5879 5878 5877 5876 5875 5875 5874 5874 5873 5872 5872 5873 5875 5873 5871 5871 5872 5873 5874 5875 5876 5876 5877 5878 5879 5880 5881 5882 5883 5884 5885 5886 5887 5887 5888 5889 5889 5889 5890 5890 5890 5890 5891 5891
5881 5880 5880 5879 5878 5877 5877 5876 5875 5875 5874 5874 5873 5872 5871 5871 5871 5870 5870 5870 5870 5871 5872 5873 5874 5875 5876 5876 5877 5879 5880 5881 5882 5883 5885 5886 5886 5887 5888 5888 5889 5890 5890 5890 5891 5891 5891 5892 5892
5880 5879 5879 5878 5877 5877 5876 5875 5875 5874 5873 5872 5871 5871 5870 5870 5869 5869 5869 5869 5869 5870 5870 5871 5873 5874 5875 5876 5877 5878 5880 5881 5882 5883 5884 5885 5886 5887 5888 5888 5889 5890 5890 5891 5891 5891 5892 5892 5892
5879 5879 5878 5877 5876 5875 5875 5874 5873 5873 5872 5870 5870 5869 5868 5868 5868 5867 5867 5867 5867 5868 5869 5870 5871 5872 5874 5875 5876 5878 5879 5880 5882 5883 5884 5885 5886 5887 5887 5888 5889 5890 5890 5891 5891 5891 5892 5892 5892
5878 5878 5877 5875 5874 5874 5873 5873 5872 5871 5870 5869 5868 5867 5866 5866 5865 5865 5865 5865 5865 5866 5867 5868 5870 5871 5872 5874 5875 5877 5878 5880 5881 5882 5883 5884 5885 5886 5887 5888 5889 5889 5890 5890 5891 5891 5892 5892 5892
5877 5876 5875 5874 5873 5872 5872 5871 5870 5870 5868 5867 5867 5866 5864 5864 5863 5862 5862 5863 5863 5864 5865 5866 5868 5869 5871 5873 5874 5876 5878 5879 5880 5882 5883 5883 5884 5885 5886 5887 5888 5889 5889 5889 5890 5890 5891 5891 5892
5876 5874 5873 5872 5871 5870 5870 5869 5868 5868 5867 5866 5865 5864 5862 5861 5860 5860 5860 5860 5860 5861 5863 5864 5866 5868 5869 5871 5873 5875 5877 5878 5879 5881 5882 5883 5884 5884 5885 5886 5887 5888 5888 5889 5889 5890 5890 5891 5891
5873 5873 5871 5870 5869 5869 5868 5867 5867 5866 5865 5864 5863 5862 5860 5859 5858 5857 5856 5857 5858 5859 5860 5862 5864 5866 5868 5869 5872 5873 5875 5877 5878 5879 5881 5882 5883 5883 5884 5885 5886 5887 5887 5888 5888 5889 5889 5890 5890
5871 5871 5869 5868 5868 5867 5866 5865 5865 5864 5863 5862 5861 5860 5858 5856 5855 5854 5853 5854 5855 5857 5858 5859 5861 5863 5865 5867 5870 5872 5874 5876 5877 5878 5879 5881 5882 5882 5883 5884 5885 5886 5886 5887 5887 5888 5888 5889 5889
5869 5868 5867 5867 5866 5865 5864 5863 5863 5862 5861 5860 5859 5857 5855 5853 5852 5852 5851 5852 5852 5854 5855 5857 5859 5861 5863 5865 5867 5870 5872 5874 5876 5877 5878 5879 5880 5881 5882 5882 5883 5884 5885 5886 5886 5887 5887 5888 5888
5866 5866 5865 5864 5864 5863 5862 5861 5860 5860 5859 5858 5857 5855 5853 5850 5849 5848 5848 5848 5850 5850 5852 5854 5856 5858 5860 5862 5864 5867 5870 5872 5874 5875 5877 5878 5879 5879 5880 5881 5882 5883 5883 5884 5885 5886 5886 5886 5887
5864 5863 5862 5862 5861 5861 5860 5860 5859 5858 5857 5855 5854 5852 5850 5847 5846 5844 5844 5845 5846 5847 5848 5851 5853 5855 5858 5860 5862 5865 5868 5870 5872 5874 5875 5876 5877 5877 5878 5879 5880 5881 5882 5883 5883 5884 5885 5885 5886
5860 5860 5860 5860 5859 5859 5858 5857 5856 5856 5854 5853 5851 5849 5848 5845 5843 5842 5842 5842 5843 5844 5845 5848 5850 5853 5855 5858 5861 5863 5865 5868 5870 5871 5873 5874 5875 5876 5876 5877 5878 5879 5880 5881 5882 5883 5883 5884 5885
5857 5857 5857 5857 5856 5856 5856 5855 5854 5853 5852 5850 5848 5847 5845 5843 5841 5839 5839 5839 5840 5841 5842 5845 5847 5850 5852 5855 5858 5860 5863 5865 5867 5869 5871 5872 5873 5874 5875 5875 5877 5878 5879 5880 5880 5881 5882 5883 5884
5854 5854 5854 5854 5853 5853 5853 5853 5851 5850 5849 5847 5846 5844 5842 5840 5838 5837 5836 5836 5836 5838 5839 5841 5844 5847 5849 5852 5855 5858 5860 5863 5865 5867 5869 5870 5871 5872 5873 5874 5875 5877 5878 5878 5879 5880 5881 5882 5882
5850 5851 5851 5851 5850 5850 5851 5850 5849 5847 5846 5844 5843 5841 5839 5837 5835 5834 5832 5832 5833 5834 5836 5837 5839 5843 5846 5849 5852 5854 5857 5859 5862 5864 5866 5868 5869 5871 5872 5873 5875 5876 5877 5878 5879 5880 5880 5881 5881
5846 5847 5848 5848 5847 5847 5847 5847 5845 5844 5843 5841 5840 5838 5836 5834 5832 5830 5829 5829 5830 5831 5832 5834 5837 5840 5843 5846 5849 5851 5853 5856 5858 5861 5864 5865 5867 5869 5870 5872 5874 5875 5876 5877 5878 5879 5880 5880 5881
5843 5843 5844 5844 5844 5843 5843 5843 5842 5840 5840 5838 5836 5835 5833 5831 5829 5827 5826 5827 5827 5828 5830 5831 5834 5837 5839 5842 5845 5848 5851 5853 5856 5859 5862 5864 5866 5867 5869 5871 5873 5874 5875 5876 5877 5878 5879 5879 5880
5839 5840 5841 5841 5840 5840 5840 5840 5839 5838 5837 5835 5834 5832 5831 5829 5826 5824 5823 5824 5824 5825 5827 5828 5831 5834 5837 5840 5843 5845 5848 5851 5854 5857 5860 5862 5864 5866 5868 5870 5872 5873 5874 5876 5876 5877 5878 5879 5879
5835 5836 5837 5838 5837 5837 5837 5837 5836 5835 5834 5833 5832 5830 5829 5826 5824 5821 5821 5821 5821 5822 5824 5826 5828 5831 5835 5837 5840 5843 5846 5849 5852 5855 5858 5860 5863 5865 5867 5869 5871 5872 5874 5875 5876 5877 5877 5878 5879
5831 5833 5834 5834 5834 5834 5834 5835 5833 5832 5831 5830 5829 5828 5826 5824 5822 5820 5819 5818 5818 5820 5822 5824 5825 5828 5831 5834 5837 5840 5843 5847 5851 5853 5856 5859 5861 5863 5866 5868 5870 5872 5873 5874 5875 5876 5877 5878 5878
5828 5829 5829 5830 5830 5830 5831 5831 5830 5829 5828 5827 5826 5825 5823 5822 5820 5819 5818 5817 5817 5818 5819 5821 5824 5826 5829 5831 5835 5838 5842 5846 5849 5851 5854 5857 5860 5862 5864 5867 5869 5871 5873 5874 5875 5875 5876 5877 5878
5824 5825 5826 5826 5827 5828 5827 5827 5828 5826 5826 5825 5824 5822 5821 5820 5818 5818 5817 5816 5816 5817 5818 5820 5822 5824 5827 5830 5833 5837 5840 5844 5847 5849 5853 5855 5858 5861 5864 5866 5868 5870 5872 5873 5874 5875 5876 5877 5877
5820 5821 5822 5823 5824 5825 5824 5823 5824 5823 5823 5822 5821 5820 5819 5818 5817 5816 5816 5815 5815 5816 5817 5819 5821 5823 5826 5829 5832 5835 5839 5842 5845 5848 5851 5854 5857 5860 5863 5865 5867 5869 5871 5872 5873 5874 5875 5876 5877
5817 5818 5819 5820 5820 5821 5821 5820 5821 5821 5820 5819 5819 5818 5817 5816 5815 5815 5814 5814 5815 5815 5816 5818 5820 5822 5825 5828 5831 5834 5837 5840 5843 5846 5849 5853 5856 5859 5861 5864 5866 5868 5870 5871 5873 5874 5875 5875 5876
5813 5815 5816 5817 5817 5818 5818 5817 5819 5818 5817 5816 5816 5816 5815 5814 5814 5814 5814 5814 5814 5815 5816 5817 5819 5821 5824 5827 5830 5833 5836 5838 5841 5844 5848 5851 5854 5857 5860 5862 5865 5867 5868 5870 5871 5872 5873 5874 5874
5808 5810 5812 5812 5813 5813 5814 5815 5816 5815 5815 5814 5814 5814 5814 5813 5813 5813 5813 5813 5814 5814 5815 5816 5818 5821 5823 5826 5829 5832 5835 5838 5840 5843 5846 5849 5853 5856 5858 5861 5863 5865 5867 5869 5870 5871 5872 5872 5873
5805 5806 5807 5808 5808 5809 5810 5811 5813 5812 5812 5812 5812 5812 5812 5812 5812 5812 5812 5813 5813 5814 5815 5816 5818 5820 5823 5826 5828 5831 5834 5837 5839 5842 5845 5848 5851 5854 5857 5859 5862 5864 5865 5867 5868 5869 5869 5870 5870
5800 5802 5802 5803 5804 5805 5806 5810 5809 5809 5809 5809 5809 5809 5809 5810 5810 5811 5811 5812 5813 5814 5815 5816 5818 5820 5822 5825 5828 5830 5833 5836 5839 5841 5844 5847 5850 5853 5855 5858 5860 5862 5863 5864 5865 5866 5867 5868 5868
5795 5796 5797 5798 5799 5800 5801 5807 5805 5806 5806 5806 5806 5806 5807 5808 5808 5809 5809 5810 5811 5813 5814 5815 5817 5819 5821 5824 5827 5829 5832 5835 5837 5840 5842 5845 5848 5851 5853 5855 5857 5859 5861 5862 5863 5863 5864 5864 5865
Wind_Speed
12 12 11 9 9 8 9 9 9 10 10 10 11 11 11 10 9 8 6 6 6 6 5 5 5 5 5 6 6 6 6 6 6 6 6 6 6 6 6 6 6 6 6 6 6 6 5 5 5
13 12 11 10 10 10 9 9 9 10 11 11 12 11 11 10 9 8 7 7 7 7 7 6 6 6 6 6 6 6 5 5 5 5 5 5 5 5 6 6 5 5 5 5 5 5 5 5 5
13 12 11 11 11 11 10 9 9 10 12 12 13 11 11 11 11 9 7 7 8 8 9 8 7 7 7 6 6 5 4 4 4 4 4 4 4 4 4 5 5 5 4 5 5 4 4 4 4
13 13 12 12 12 11 11 10 11 12 12 13 13 13 12 13 12 11 8 8 8 9 9 9 8 8 8 7 6 5 4 3 3 2 2 2 2 3 4 4 4 4 4 4 4 4 4 3 3
13 13 13 13 13 12 11 11 12 12 13 13 13 14 14 14 13 11 9 9 9 9 10 10 9 9 8 8 7 6 4 4 2 1 1 1 2 2 3 4 4 4 4 4 4 4 4 3 2
14 14 13 13 14 12 12 12 12 13 13 14 14 15 14 15 14 12 10 10 10 10 11 11 10 9 9 8 8 6 5 4 3 2 1 1 1 2 3 3 4 4 4 4 4 4 3 3 1
15 15 14 13 13 14 14 13 14 15 14 14 14 14 14 14 14 13 12 11 11 10 11 12 11 11 11 10 9 8 7 5 4 3 2 2 2 3 3 4 4 4 4 4 4 3 3 2 1
16 15 15 14 13 14 14 14 14 15 15 15 14 14 14 14 14 13 12 11 11 12 13 13 13 13 12 12 10 9 8 7 5 4 3 3 3 4 4 4 4 4 5 4 4 3 3 2 2
16 15 15 14 14 14 14 15 15 15 16 15 14 15 15 15 14 13 12 12 11 12 12 12 13 15 14 13 12 10 9 8 7 5 5 5 5 5 5 5 5 5 4 4 4 3 3 3 3
16 15 15 15 15 15 15 15 15 15 16 16 16 16 16 16 14 13 13 13 12 12 13 13 14 15 15 15 14 12 11 9 8 7 6 6 6 6 7 6 6 6 5 5 5 4 4 4 4
16 15 16 15 16 15 15 16 16 16 16 17 16 17 17 15 14 14 12 11 11 12 13 15 15 15 15 16 16 14 12 11 10 9 8 7 7 7 7 7 6 6 6 5 5 5 5 5 5
16 16 16 15 16 16 15 15 16 16 16 17 17 16 16 15 15 12 10 9 10 11 13 15 15 15 16 17 16 16 14 12 11 11 9 8 8 7 6 7 6 6 6 6 5 5 5 6 6
16 16 15 15 15 16 15 15 15 15 15 16 16 14 14 15 14 11 11 10 10 10 12 14 15 15 15 16 16 15 15 14 13 11 10 10 9 8 8 7 7 7 7 6 6 6 5 5 5
16 15 14 14 15 15 14 14 15 13 15 16 15 14 14 14 13 12 11 10 11 10 13 16 16 16 16 17 17 15 15 15 14 13 12 10 10 8 7 6 7 7 7 6 6 6 6 5 5
15 14 14 15 15 14 15 14 13 13 14 16 15 14 15 15 13 13 12 11 11 12 13 16 18 18 17 17 17 16 17 15 15 14 13 11 10 9 7 6 6 6 6 5 4 4 4 4 5
16 15 15 16 16 15 15 13 14 14 15 16 16 16 15 14 13 13 12 11 11 12 14 16 17 19 18 17 18 18 18 17 17 16 14 13 11 9 8 7 7 6 5 4 3 3 3 4 4
17 17 16 16 17 16 16 14 14 16 17 17 16 16 15 13 13 12 11 10 12 12 12 13 16 18 19 18 18 19 18 18 18 17 15 14 12 10 8 8 7 5 5 4 4 3 3 3 3
18 17 16 16 16 17 16 15 14 15 16 16 16 15 14 13 11 10 9 9 11 12 13 13 16 19 18 18 18 18 18 18 18 17 15 13 11 10 9 8 8 6 5 4 4 3 3 2 2
18 17 15 16 17 17 17 15 14 15 15 15 14 14 13 12 12 10 10 10 11 12 13 14 17 18 18 18 17 17 18 18 16 15 14 13 12 11 10 9 8 6 5 5 4 3 3 2 1
19 18 16 16 18 18 17 15 14 15 15 14 13 13 13 13 11 10 10 9 8 9 11 13 15 18 19 18 17 17 17 17 16 16 15 13 12 12 11 10 9 8 6 5 4 4 3 2 1
19 18 18 18 18 19 18 15 15 15 15 14 14 14 13 12 10 10 9 8 9 9 10 12 15 17 19 19 18 17 17 17 17 16 15 14 13 12 12 11 10 9 7 6 5 4 3 2 2
20 19 19 19 18 18 18 15 14 15 15 15 15 14 13 12 10 9 8 7 9 10 10 12 14 16 18 18 17 17 17 17 17 16 15 15 14 12 12 12 10 9 8 6 6 5 4 3 2
19 20 20 20 19 19 18 16 13 14 15 14 14 13 12 11 10 8 7 6 7 8 10 12 13 15 17 18 18 18 18 18 17 16 16 16 15 13 13 12 11 10 8 7 6 5 4 3 2
20 21 21 21 20 19 17 17 13 15 15 14 13 12 12 11 9 8 7 7 7 8 10 12 13 15 16 18 18 18 19 18 17 17 17 16 15 14 14 13 12 10 9 8 6 5 4 3 3
20 21 21 20 20 17 16 16 13 14 14 13 12 11 11 10 9 8 7 7 7 8 9 10 13 15 16 18 18 18 18 18 18 18 18 17 16 15 15 14 13 11 10 9 7 5 4 4 4
21 21 22 21 19 16 16 15 13 13 13 12 11 10 9 9 9 8 8 7 7 8 9 10 12 14 16 17 18 18 18 18 18 19 18 17 17 16 16 14 13 12 11 9 8 7 6 6 6
22 22 22 22 20 19 17 15 13 14 13 12 11 10 9 8 8 7 7 8 8 8 9 11 13 14 16 17 17 18 18 18 18 18 18 17 17 17 16 14 13 12 11 10 9 8 8 8 8
22 22 23 23 22 21 18 15 14 13 11 11 11 10 10 8 8 7 7 8 9 9 10 11 14 14 15 16 16 17 18 18 17 17 17 18 18 17 16 15 13 12 11 11 10 10 9 10 10
22 23 24 24 24 23 19 14 13 13 12 11 11 11 10 9 8 8 8 9 9 10 10 11 14 15 16 16 16 17 17 17 17 17 17 18 17 17 16 15 14 13 13 12 12 11 11 12 12
24 25 25 26 26 24 21 15 14 13 12 12 11 11 10 9 9 10 10 10 10 11 11 12 14 15 16 16 16 17 17 17 17 17 17 17 17 16 16 15 15 14 14 14 14 14 14 14 14
Wind_Direction
340 338 335 332 328 326 329 337 337 342 348 353 358 358 356 352 352 343 325 299 279 257 259 247 214 189 167 144 130 118 109 100 92 88 83 77 70 63 56 52 50 52 53 49 46 48 53 58 60
335 333 329 324 320 320 322 329 334 342 347 348 352 354 352 348 344 334 317 294 278 261 249 235 224 205 186 166 147 131 120 110 102 98 91 84 72 63 56 49 46 46 46 43 39 39 42 51 55
329 327 322 317 315 316 315 319 325 334 343 347 348 350 346 341 336 327 311 290 274 262 250 233 222 207 194 180 164 149 136 123 114 110 102 88 69 58 49 41 36 34 32 29 28 28 31 39 46
321 318 314 310 309 311 311 314 318 326 336 343 344 345 341 334 330 322 309 287 267 260 247 234 220 208 199 188 175 164 156 143 129 122 116 89 56 41 32 26 24 19 15 14 12 12 19 27 35
313 311 307 305 304 307 309 312 317 322 328 337 338 338 335 329 323 316 303 285 266 256 240 226 219 211 203 196 189 180 177 170 159 144 124 70 32 15 9 10 8 5 358 356 355 357 7 14 27
307 306 302 300 301 303 305 310 313 321 330 338 337 333 328 323 318 311 296 281 266 255 236 222 219 214 205 199 196 191 191 189 191 198 215 312 329 333 340 345 345 343 342 341 339 345 350 353 4
303 303 299 298 298 299 304 310 314 323 330 333 332 329 325 323 319 306 292 281 267 252 237 223 218 214 208 203 202 200 200 199 204 213 238 262 290 304 312 321 327 330 330 327 323 320 326 330 322
298 297 294 295 295 294 302 307 313 320 325 326 326 326 323 321 316 305 289 281 269 252 239 229 221 216 211 206 206 205 205 206 210 218 241 252 271 286 296 300 307 316 317 312 308 305 295 280 264
292 291 292 293 291 291 299 304 310 317 319 319 319 320 321 319 313 304 289 275 263 252 238 228 223 221 213 209 208 209 210 215 221 225 239 249 259 276 287 290 297 302 306 304 301 297 282 264 256
288 288 289 291 290 290 297 301 306 311 316 318 318 319 317 315 311 301 289 274 257 246 235 230 227 220 214 211 210 213 216 221 229 232 242 251 259 273 282 285 287 290 295 297 294 292 276 256 251
285 283 285 289 289 289 293 298 304 310 313 317 318 317 315 313 307 300 290 271 251 243 236 232 228 222 218 214 212 213 216 220 226 232 243 252 262 273 279 278 279 280 283 288 286 283 269 251 246
283 282 284 289 291 292 293 297 304 309 311 315 318 319 315 311 308 301 290 262 246 242 232 228 225 222 220 217 216 216 217 221 223 229 236 247 258 262 265 272 273 274 273 276 277 271 256 244 242
280 281 284 287 287 292 293 295 301 305 309 311 314 313 313 311 304 294 284 262 247 242 232 223 220 222 220 218 218 220 218 218 222 229 236 246 252 256 258 262 266 265 266 269 272 262 250 245 243
279 279 280 281 280 286 292 295 297 300 303 308 310 310 312 309 298 297 286 268 247 240 234 228 225 223 219 217 217 222 220 220 224 227 233 240 247 250 257 257 256 260 262 264 267 261 252 242 241
272 270 270 270 273 282 288 291 291 295 302 308 310 309 308 306 300 294 284 269 249 240 233 228 225 221 217 216 216 220 222 224 224 226 232 237 238 241 249 250 249 251 254 254 254 255 245 240 241
264 262 260 266 272 276 281 285 287 293 302 307 308 309 309 305 301 294 284 268 250 241 234 229 221 217 217 216 217 219 223 228 224 225 230 232 230 232 235 233 235 238 238 233 232 237 239 239 245
259 259 260 263 268 273 278 283 287 294 299 303 307 309 307 304 298 293 281 269 256 248 237 229 221 215 215 218 218 219 223 226 224 222 226 226 222 222 222 222 225 227 222 221 226 237 243 245 253
257 258 259 260 265 271 279 284 290 296 300 302 305 306 306 305 298 289 276 271 259 248 239 231 221 214 212 214 214 216 218 221 220 218 219 217 213 213 214 212 216 215 211 213 217 227 239 251 256
255 256 256 257 262 270 278 284 291 295 300 303 304 303 305 307 301 289 281 273 264 249 239 228 216 210 213 213 214 215 216 215 214 215 215 213 210 210 210 207 207 200 196 197 199 207 221 230 228
253 253 252 253 259 268 275 282 290 294 298 302 302 302 304 305 305 292 282 276 266 251 233 221 211 209 212 213 212 210 210 209 207 207 208 207 207 209 207 206 201 197 198 199 200 199 206 208 205
251 251 251 253 258 268 275 277 285 291 297 300 299 299 301 301 301 293 286 271 253 242 228 217 208 207 208 209 205 200 204 205 203 203 206 206 206 206 205 201 198 197 200 203 200 196 193 198 201
246 249 252 255 259 266 275 277 281 289 296 299 298 296 299 298 298 292 282 271 247 235 224 214 208 205 205 204 200 201 201 203 202 205 206 204 202 203 200 198 196 194 195 191 187 181 181 190 195
245 249 253 257 262 268 274 278 279 286 292 295 296 295 292 294 292 286 276 264 249 239 222 210 205 202 199 198 196 196 197 198 200 201 202 201 199 198 196 194 194 194 192 188 183 178 182 190 199
247 250 254 257 262 268 274 279 282 283 288 291 290 290 285 288 286 279 268 255 244 220 213 210 203 198 197 196 194 194 196 197 199 199 199 197 196 195 196 196 195 195 195 195 191 190 198 209 227
246 251 254 257 262 269 273 277 284 286 289 289 288 285 282 279 279 272 260 254 234 217 213 208 203 197 196 195 193 194 196 197 198 195 195 194 195 197 199 198 196 196 197 200 203 212 221 232 246
246 251 256 261 265 269 271 276 282 284 287 287 285 282 286 279 273 267 248 237 223 213 210 203 200 198 197 195 193 194 196 198 197 193 193 195 196 197 198 197 199 201 204 208 218 228 236 245 254
243 248 256 263 267 270 269 274 279 282 278 279 279 280 281 279 272 264 243 231 222 214 206 201 197 196 196 195 195 195 195 195 194 194 196 196 196 197 198 200 204 208 211 217 226 233 242 251 260
243 247 253 259 267 270 270 271 276 278 275 272 273 275 274 266 262 258 247 233 227 219 211 202 197 195 194 195 195 194 196 198 197 197 197 199 200 200 203 206 209 214 220 227 233 239 247 255 262
247 250 253 258 263 268 269 270 273 273 270 270 271 272 268 255 252 252 241 234 230 220 213 206 201 199 198 198 197 198 199 200 201 201 201 202 201 204 207 211 215 221 228 235 240 246 253 259 264
250 254 256 258 262 264 268 266 265 267 266 268 269 264 259 251 247 247 239 233 227 221 217 213 208 204 202 202 202 204 203 203 204 206 206 204 205 208 212 217 223 230 237 242 247 252 258 263 268